Flag for Austria Weather past 2 weeks in Enns, Upper Austria, Austria

Now
67 °F

Sunny.


Feels Like: 67 °F
Forecast: 64 / 74 °F
Wind: N/A

Location: Linz / Hoersching-Flughafen

Current Time: Jul 7, 2015 at 7:24:55 AM

Latest Report: Jul 7, 2015 at 6:00 AM


Visibility: 5 mi

Pressure: 30.03 "Hg

Humidity: 92%

Dew point: 64 °F

Location of EnnsLocation

Historic Weather in Enns — Graph

°F

Enns temperature yesterday

Maximum temperature yesterday: 86 °F (at 5:00 PM)
Minimum temperature yesterday: 65 °F (at 5:00 AM)
Average temperature yesterday: 77 °F

Past Weeks' High & Low Weather Summary

 TemperatureHumidityPressure
High92 °F (Jul 5, 5:00 PM)98% (Jun 25, 5:00 AM)30.27 "Hg (Jun 25, 5:00 AM)
Low47 °F (Jun 25, 6:00 AM)28% (Jul 5, 5:00 PM)29.72 "Hg (Jun 23, 2:00 AM)
Average68 °F67%30.11 "Hg
* Reported Jun 22 6:00 AM — Jul 7 6:00 AM, Enns, Weather by CustomWeather, © 2015

Note: Actual official high and low records may vary slightly from our data, if they occured in-between our weather recording intervals... More about our weather records

Advertising

Enns weather history for previous 24 hours

 ConditionsComfort  
Time TempWeatherWind HumidityBarometerVisibility
6:00 AM
Tue, Jul 7
67 °FSunny.N/A92%30.03 "Hg5 mi
5:00 AM67 °FClear.N/A90%30.03 "Hg6 mi
4:00 AM68 °FClear.N/A90%30.04 "Hg7 mi
3:00 AM69 °FMild.N/A88%30.05 "Hg7 mi
2:00 AM71 °FMild.N/A85%30.06 "Hg8 mi
1:00 AM71 °FMild.N/A84%30.05 "Hg6 mi
12:00 AM75 °FMild.N/A77%30.05 "Hg11 mi
11:00 PM
Mon, Jul 6
75 °FPassing clouds.N/A77%30.05 "Hg11 mi
10:00 PM78 °FPassing clouds.N/A68%30.04 "Hg13 mi
9:00 PM82 °FPassing clouds.N/A59%30.03 "Hg13 mi
8:00 PM85 °FPassing clouds.N/A52%30.02 "Hg14 mi
7:00 PM86 °FPassing clouds.N/A51%30.03 "Hg14 mi
6:00 PM86 °FPassing clouds.3 mph49%30.03 "Hg12 mi
5:00 PM86 °FPassing clouds.3 mph49%30.05 "Hg17 mi
4:00 PM85 °FScattered clouds.5 mph53%30.06 "Hg8 mi
3:00 PM85 °FPartly sunny.5 mph52%30.08 "Hg15 mi
2:00 PM82 °FPartly sunny.3 mph60%30.09 "Hg12 mi
1:00 PM81 °FPartly sunny.7 mph62%30.10 "Hg12 mi
12:00 PM80 °FOvercast.7 mph63%30.11 "Hg14 mi
11:00 AM77 °FOvercast.10 mph69%30.12 "Hg18 mi
10:00 AM75 °FOvercast.7 mph72%30.13 "Hg17 mi
9:00 AM74 °FOvercast.5 mph79%30.13 "Hg19 mi
8:00 AM76 °FOvercast.6 mph69%30.08 "Hg16 mi
7:00 AM69 °FPartly sunny.3 mph80%30.06 "Hg14 mi
Weather by CustomWeather, © 2015

See weather overviewHow to use our weather pages